Location: ?????
(31.8092°N, 35.2590°E)
Time: 15:18:41
(UTC+00:00)

UNK - Pass Details

Date: 20 June 2021
Orbit: 666 x 686 km, 98.2° (Epoch: 01 August)

Event Time Altitude Azimuth Distance (km) Brightness Sun altitude
Exits shadow 23:51:05 51° 323° (NW) 850 4.2 -26.6°
Drops below altitude 10° 23:54:37 10° 343° (NNW) 2,112 6.7 -26.2°
Sets 23:56:53 0° 345° (NNW) 3,034 7.7 -25.9°
